Wind_Speed
20 19 19 19 18 16 15 14 11 17 15 13 14 12 10 11 13 12 20 19 26 14 6 6 10 16 11 9 16 14 2 5 7 8 6 21 6 13 4 10 6 2 10 19 15
22 22 20 20 19 19 19 16 12 12 17 15 14 11 9 10 12 18 18 13 10 20 14 13 12 12 9 10 7 7 6 7 4 11 6 10 5 9 5 5 2 5 15 17 15
22 21 22 23 21 19 20 15 16 14 15 18 13 10 7 6 8 14 11 20 17 17 14 16 14 13 15 15 14 5 5 4 13 21 5 6 10 10 6 1 10 11 12 15 15
23 23 23 23 23 22 20 20 14 15 12 18 13 8 6 9 6 2 4 21 19 22 16 17 15 9 9 8 16 6 7 20 20 26 10 3 9 10 3 5 11 7 11 12 21
24 23 23 24 24 22 22 21 17 15 13 16 15 9 9 10 11 2 6 13 21 18 20 19 16 15 6 7 14 5 8 21 20 19 13 8 6 7 16 18 13 18 15 10 11
23 23 23 22 24 25 23 21 19 17 14 11 15 12 13 6 9 7 4 9 19 18 21 18 9 18 6 9 5 4 4 4 8 14 14 9 8 8 5 20 25 26 27 23 18
25 21 24 22 22 23 22 20 19 18 16 7 17 15 13 19 10 12 9 5 4 15 18 22 12 12 8 2 2 4 4 7 8 12 6 11 7 7 21 27 30 32 32 36 29
25 24 22 23 21 22 20 18 17 17 20 15 18 16 8 14 16 9 13 14 13 12 15 17 16 9 3 3 2 4 3 2 7 11 12 12 12 6 19 23 26 34 39 39 40
23 22 21 21 21 20 18 18 18 15 23 15 24 15 7 12 17 20 11 17 15 10 12 13 14 3 4 4 1 2 3 5 7 10 6 11 2 13 24 19 20 26 34 37 37
22 21 20 20 21 18 17 19 17 13 19 14 14 10 12 14 21 22 16 16 12 12 12 10 4 3 2 4 5 5 4 4 6 5 2 5 9 8 21 21 24 27 25 25 27
21 19 20 17 15 17 16 17 5 5 19 7 13 3 10 14 16 20 24 17 17 12 4 7 3 5 9 6 4 5 6 5 4 5 2 6 9 10 17 23 26 29 30 37 36
20 20 18 16 19 18 17 11 9 4 6 23 10 11 24 25 11 23 22 12 11 6 5 3 2 5 8 9 10 5 7 5 6 5 4 11 20 17 17 22 29 31 27 36 37
22 17 20 21 22 20 13 11 12 12 4 13 18 20 23 12 8 24 23 13 8 6 6 5 2 7 5 2 7 2 4 3 5 7 6 7 9 8 7 20 30 33 37 35 41
19 19 21 22 21 3 10 5 10 12 3 10 7 13 18 11 5 23 20 14 4 9 6 1 1 3 4 3 3 0 4 5 4 4 4 6 6 7 9 10 5 19 27 33 37
19 21 24 25 23 16 5 2 7 0 4 13 10 23 21 4 22 16 20 2 6 6 6 6 3 5 3 2 5 3 6 5 4 3 5 3 2 8 6 6 6 7 15 22 22
19 25 28 23 12 12 15 2 8 2 4 6 9 11 9 14 3 21 10 2 4 4 5 4 6 3 6 2 4 5 4 3 3 2 2 8 7 4 3 3 3 3 12 12 13
27 26 18 10 6 9 20 12 3 3 2 6 8 15 12 9 6 9 9 5 4 5 2 2 2 3 3 4 2 4 5 2 2 2 6 2 4 7 9 10 6 9 11 5 6
23 20 7 2 1 19 21 2 2 2 3 8 15 16 7 12 9 9 7 4 3 3 4 5 3 8 5 5 6 6 5 4 5 3 4 1 7 6 9 17 16 15 12 16 11
15 5 5 5 11 15 3 2 2 4 2 8 14 6 5 4 7 7 5 5 5 4 5 4 3 4 9 3 5 3 3 4 1 2 2 5 7 8 8 8 8 9 10 15 18
14 12 15 9 8 10 3 4 4 5 9 12 4 3 7 8 6 5 8 6 5 8 1 1 4 5 4 5 5 5 4 2 2 2 5 6 5 8 4 5 7 9 14 5 8
11 7 8 9 4 1 1 3 3 8 15 2 5 7 10 6 6 7 11 6 9 9 7 1 2 2 2 5 6 4 5 4 2 3 3 4 5 5 6 2 4 7 12 10 13
11 3 4 5 3 2 3 3 5 4 12 5 4 8 12 6 8 3 9 2 18 14 6 3 4 3 8 6 8 5 6 6 4 4 4 3 7 12 17 14 11 22 30 36 35
5 4 1 10 2 1 3 3 4 4 3 3 1 4 14 5 6 2 5 5 16 7 12 6 1 2 1 3 1 5 6 8 3 2 8 3 7 5 15 22 35 31 31 34 30
2 2 2 3 1 1 1 2 4 5 4 6 11 15 7 1 5 7 4 4 6 5 10 9 4 5 5 3 3 3 3 6 9 4 8 15 23 26 23 23 24 28 29 31 29
2 1 2 2 2 2 1 5 7 6 8 7 8 9 6 5 6 5 7 3 5 3 4 4 2 1 5 6 4 6 9 9 10 15 10 25 21 25 26 19 25 26 13 12 13
3 3 6 5 7 5 5 3 6 5 5 7 9 12 10 4 2 8 7 4 4 2 3 2 2 2 5 9 10 9 13 13 15 18 19 23 25 19 21 25 19 6 10 18 13
5 3 2 5 3 1 3 2 3 2 10 10 5 7 10 3 9 9 8 5 8 7 5 5 3 1 4 5 6 5 7 12 5 5 6 9 14 15 18 13 10 14 17 16 23
Wind_Direction
342 338 332 318 309 282 290 275 286 269 280 296 298 281 275 266 257 245 235 226 203 178 167 209 198 202 197 241 222 218 185 209 220 231 253 290 315 305 175 163 149 133 137 164 166
336 333 334 329 322 310 277 282 268 270 267 280 296 279 269 261 258 244 236 200 193 216 224 207 196 193 209 225 230 184 204 224 221 235 266 277 4 316 175 181 208 208 141 160 162
329 327 327 323 324 319 315 287 267 256 265 260 278 271 256 230 284 265 239 186 192 207 208 202 194 208 215 230 227 202 190 226 266 263 309 319 314 339 353 187 215 218 192 189 198
320 323 319 318 318 320 309 308 287 255 266 247 256 246 225 191 218 226 228 195 193 205 214 190 216 239 184 213 235 247 242 235 260 270 289 288 305 327 315 281 315 261 266 289 211
318 314 309 311 312 315 310 306 292 277 260 256 236 216 201 208 234 251 253 201 194 190 195 190 214 227 183 201 242 231 240 254 258 274 308 270 267 268 286 287 272 271 276 280 249
308 309 309 309 305 307 307 297 296 269 254 256 223 206 200 231 228 243 189 185 210 206 200 198 205 208 220 243 207 252 212 282 294 302 314 275 260 263 265 269 274 273 268 263 255
315 312 308 310 310 307 304 292 288 263 249 253 212 203 213 218 194 199 200 155 185 196 203 199 203 188 205 242 4 79 21 341 305 284 257 306 277 233 253 263 265 267 262 262 267
314 312 309 308 310 312 306 288 291 265 249 225 204 192 231 228 190 219 205 183 177 195 216 204 202 168 132 140 48 53 43 319 247 236 238 196 256 249 242 249 255 262 260 257 259
320 316 313 308 316 314 305 298 297 270 249 226 180 174 230 218 211 215 200 181 179 178 184 196 194 160 129 110 72 208 232 228 293 242 206 182 211 242 246 257 265 255 255 250 250
323 323 317 313 314 312 309 304 299 256 239 232 161 166 227 203 203 199 193 169 171 156 154 163 145 138 113 158 198 196 228 244 234 298 220 233 252 267 273 274 272 271 263 247 247
326 327 324 321 320 326 313 326 321 211 228 173 184 224 283 176 165 183 158 164 171 167 150 176 157 180 196 193 243 271 299 274 270 327 325 265 275 265 270 267 267 267 262 261 255
329 327 319 317 314 322 307 295 277 355 312 217 214 203 143 148 135 169 157 148 157 175 147 122 182 189 194 204 232 266 276 278 298 351 24 308 291 276 257 257 245 253 252 254 257
321 316 319 319 312 306 289 269 267 291 278 193 216 198 153 143 147 174 170 154 150 162 160 144 138 207 220 274 201 237 268 292 268 339 349 343 291 255 281 246 248 248 249 252 254
319 319 320 318 313 337 311 257 242 256 255 158 222 195 162 142 123 172 169 144 151 158 157 112 173 112 132 223 145 27 34 68 48 46 258 73 290 287 269 277 252 247 247 247 247
317 316 317 312 293 270 230 24 176 337 203 150 152 153 171 181 133 190 182 170 160 144 122 228 161 139 138 209 162 179 93 72 40 12 353 281 216 277 255 272 274 295 269 244 238
314 318 322 309 274 271 206 199 126 247 235 139 140 155 128 154 99 157 176 151 118 148 135 124 94 102 185 131 81 127 69 45 42 59 312 223 182 269 232 203 205 253 337 295 237
322 321 324 305 279 166 159 150 71 250 303 132 144 145 141 136 119 155 154 142 135 113 137 87 133 133 78 128 113 94 79 10 348 217 237 135 186 251 279 273 243 262 289 141 187
324 325 331 161 219 150 147 98 137 238 63 129 135 136 126 125 134 149 144 143 269 84 105 141 315 161 186 172 173 163 162 161 219 216 275 267 236 254 236 254 279 250 237 233 240
325 44 16 82 129 151 175 48 295 345 143 126 112 117 129 121 131 147 166 160 198 180 126 125 261 151 163 155 125 191 184 185 47 301 42 248 300 309 314 355 31 22 356 283 252
83 57 104 95 138 169 8 14 332 311 117 138 87 183 134 146 122 124 166 193 193 195 164 1 111 144 149 165 228 157 170 97 4 281 281 282 259 244 337 356 9 7 345 336 162
41 52 113 83 110 2 5 24 321 320 161 173 144 121 129 142 128 151 183 167 178 189 162 165 84 92 144 197 187 180 205 203 143 176 222 288 262 236 210 103 338 336 354 322 271
37 48 88 38 50 337 305 23 350 298 268 279 125 112 147 145 145 142 184 224 185 159 167 146 114 183 214 231 200 180 194 161 135 258 247 220 269 263 271 296 325 319 316 296 282
46 61 195 338 42 14 334 7 256 314 344 95 127 90 147 133 137 180 89 7 181 153 167 149 105 48 38 8 175 196 210 200 220 38 230 263 266 257 322 313 304 302 306 293 295
66 40 297 299 327 19 50 329 304 265 24 53 106 113 117 121 117 144 107 41 69 98 145 141 151 172 184 182 98 203 221 196 191 222 266 244 276 288 289 297 302 298 304 298 283
34 4 6 324 73 304 257 2 12 35 359 22 127 154 112 86 76 97 92 87 58 115 73 96 171 285 265 253 197 222 241 240 236 248 250 276 280 288 296 306 307 301 322 327 0
55 12 348 287 132 37 19 328 4 15 19 53 78 61 68 83 215 148 134 156 185 174 111 107 259 61 288 251 237 246 245 239 242 253 255 263 276 278 288 305 329 290 304 312 322
34 25 317 300 333 125 226 254 113 45 23 44 71 87 67 39 73 91 112 131 148 141 165 154 146 92 272 312 337 275 235 215 208 207 228 262 273 300 315 322 347 337 331 302 280
Height
1495 1492 1489 1486 1484 1483 1482 1481 1481 1481 1481 1481 1480 1479 1479 1479 1480 1481 1479 1481 1485 1488 1491 1495 1496 1499 1502 1504 1504 1504 1511 1513 1507 1507 1501 1493 1494 1494 1491 1490 1492 1497 1498 1499 1502
1494 1491 1487 1484 1481 1478 1477 1476 1476 1477 1478 1477 1477 1477 1477 1477 1478 1476 1475 1478 1482 1486 1489 1493 1494 1497 1499 1500 1501 1500 1506 1504 1498 1499 1498 1495 1493 1492 1489 1489 1491 1495 1498 1499 1500
1490 1488 1486 1482 1478 1476 1473 1472 1471 1472 1471 1473 1474 1474 1475 1474 1476 1467 1469 1474 1479 1483 1486 1491 1493 1496 1498 1498 1497 1494 1501 1496 1497 1495 1497 1494 1491 1492 1491 1491 1490 1492 1497 1499 1497
1487 1484 1482 1479 1475 1472 1470 1468 1467 1467 1468 1467 1471 1470 1471 1473 1476 1467 1468 1472 1476 1481 1484 1487 1490 1493 1494 1495 1493 1497 1493 1495 1494 1493 1494 1492 1491 1489 1490 1490 1490 1492 1495 1497 1498
1482 1480 1477 1475 1471 1469 1466 1464 1462 1463 1464 1465 1465 1467 1468 1471 1466 1467 1469 1471 1475 1477 1480 1483 1486 1490 1489 1490 1492 1492 1491 1491 1492 1490 1491 1489 1488 1489 1485 1486 1486 1486 1488 1492 1495
1477 1474 1471 1469 1467 1464 1462 1460 1458 1458 1459 1460 1461 1463 1466 1467 1463 1465 1467 1469 1471 1475 1479 1482 1484 1487 1487 1488 1492 1486 1487 1488 1488 1487 1488 1488 1485 1487 1483 1483 1483 1484 1483 1487 1491
1472 1470 1466 1464 1461 1459 1457 1456 1454 1453 1454 1456 1456 1459 1461 1458 1461 1462 1465 1467 1470 1472 1475 1479 1483 1484 1486 1486 1486 1485 1488 1486 1486 1486 1485 1485 1483 1482 1482 1481 1481 1481 1481 1478 1483
1467 1464 1461 1458 1456 1454 1452 1450 1448 1448 1449 1451 1451 1455 1456 1456 1458 1460 1463 1466 1469 1472 1474 1478 1480 1482 1483 1485 1485 1486 1488 1496 1483 1480 1479 1485 1479 1478 1476 1477 1478 1476 1476 1476 1473
1463 1459 1457 1454 1452 1450 1448 1445 1444 1443 1444 1446 1444 1451 1455 1451 1453 1456 1460 1463 1467 1470 1474 1475 1478 1481 1483 1485 1489 1487 1499 1494 1487 1474 1474 1478 1477 1470 1472 1471 1472 1469 1469 1468 1468
1459 1456 1453 1451 1448 1446 1445 1442 1439 1439 1441 1443 1439 1453 1448 1445 1448 1453 1458 1463 1466 1468 1472 1475 1477 1480 1482 1486 1495 1491 1493 1489 1487 1474 1470 1472 1474 1469 1466 1465 1463 1463 1463 1462 1462
1455 1453 1449 1447 1445 1443 1442 1439 1439 1439 1436 1432 1436 1436 1433 1443 1447 1451 1456 1461 1466 1469 1471 1473 1478 1480 1482 1482 1481 1483 1485 1488 1480 1476 1475 1475 1473 1467 1462 1460 1457 1455 1455 1454 1454
1452 1449 1447 1444 1442 1441 1440 1439 1439 1439 1437 1430 1434 1437 1435 1440 1446 1452 1456 1461 1463 1469 1469 1475 1476 1474 1476 1477 1479 1485 1489 1488 1478 1473 1477 1474 1464 1459 1455 1447 1448 1445 1447 1446 1446
1449 1446 1444 1441 1438 1437 1434 1435 1436 1438 1438 1431 1433 1436 1439 1443 1445 1449 1454 1457 1462 1468 1469 1475 1472 1472 1476 1478 1481 1484 1487 1486 1487 1479 1477 1476 1464 1451 1440 1435 1435 1436 1436 1439 1439
1445 1443 1440 1438 1435 1431 1432 1431 1434 1436 1436 1429 1429 1432 1438 1440 1446 1450 1455 1458 1461 1465 1468 1471 1470 1471 1476 1479 1481 1487 1484 1485 1486 1490 1496 1484 1489 1458 1440 1434 1431 1429 1429 1430 1431
1441 1439 1436 1433 1431 1430 1432 1431 1432 1437 1423 1427 1427 1430 1435 1439 1444 1451 1454 1456 1460 1461 1467 1474 1470 1474 1478 1479 1480 1486 1484 1486 1488 1493 1495 1488 1498 1458 1442 1436 1431 1428 1426 1425 1425
1437 1433 1429 1425 1424 1423 1427 1430 1431 1434 1420 1416 1421 1427 1436 1440 1442 1449 1454 1457 1458 1461 1466 1470 1470 1474 1478 1478 1480 1483 1486 1488 1491 1497 1514 1484 1486 1462 1442 1431 1429 1425 1423 1422 1423
1432 1428 1424 1421 1421 1419 1424 1430 1435 1425 1418 1419 1418 1426 1434 1439 1444 1449 1453 1457 1461 1472 1476 1470 1473 1475 1477 1481 1481 1484 1495 1523 1504 1501 1504 1475 1484 1454 1434 1425 1425 1423 1421 1422 1423
1427 1424 1422 1421 1420 1422 1426 1430 1437 1413 1414 1414 1419 1428 1434 1438 1448 1450 1455 1461 1458 1461 1478 1485 1492 1476 1475 1479 1484 1488 1490 1514 1505 1507 1489 1471 1467 1442 1424 1420 1421 1418 1418 1419 1419
1420 1422 1420 1423 1424 1426 1430 1432 1423 1417 1415 1415 1426 1434 1439 1438 1446 1451 1455 1460 1459 1461 1472 1482 1477 1468 1472 1475 1479 1486 1500 1489 1501 1495 1519 1476 1452 1431 1420 1422 1420 1422 1419 1419 1418
1422 1424 1427 1428 1430 1432 1431 1424 1427 1420 1416 1418 1425 1427 1435 1438 1446 1451 1455 1455 1457 1458 1461 1464 1472 1471 1472 1474 1477 1482 1483 1496 1511 1520 1499 1475 1459 1440 1426 1424 1421 1422 1421 1419 1418
1428 1429 1432 1434 1435 1435 1434 1428 1430 1420 1421 1418 1420 1424 1430 1438 1443 1448 1455 1449 1453 1456 1460 1461 1466 1480 1474 1476 1479 1482 1480 1481 1491 1496 1495 1484 1457 1427 1424 1422 1422 1421 1419 1422 1420
1432 1437 1437 1437 1437 1437 1432 1429 1432 1427 1422 1420 1420 1424 1432 1437 1443 1443 1451 1449 1450 1453 1461 1462 1471 1482 1481 1473 1473 1476 1479 1484 1505 1495 1492 1487 1449 1423 1421 1419 1418 1417 1415 1414 1410
1438 1441 1441 1439 1440 1437 1433 1430 1431 1424 1418 1418 1420 1422 1430 1435 1445 1443 1449 1449 1449 1452 1457 1462 1476 1498 1480 1477 1472 1475 1473 1475 1479 1483 1486 1479 1445 1421 1419 1421 1420 1414 1412 1410 1405
1442 1445 1443 1440 1438 1438 1435 1432 1431 1423 1419 1418 1421 1426 1432 1435 1437 1446 1450 1452 1451 1453 1455 1459 1469 1479 1483 1472 1470 1480 1470 1471 1476 1479 1466 1452 1439 1425 1422 1417 1413 1409 1407 1402 1397
1442 1444 1442 1443 1439 1436 1434 1432 1428 1426 1424 1424 1427 1430 1430 1436 1439 1445 1449 1453 1455 1456 1458 1462 1478 1472 1469 1466 1471 1470 1468 1468 1470 1461 1467 1436 1438 1425 1420 1415 1409 1403 1400 1396 1391
1445 1444 1443 1440 1441 1438 1438 1435 1432 1431 1429 1431 1432 1433 1434 1439 1441 1443 1447 1452 1455 1458 1460 1463 1477 1475 1476 1461 1462 1465 1458 1458 1457 1453 1451 1445 1435 1422 1415 1410 1406 1401 1398 1397 1394
1447 1447 1446 1441 1441 1441 1439 1437 1436 1434 1435 1436 1436 1437 1441 1444 1443 1444 1446 1447 1449 1456 1461 1465 1473 1481 1484 1458 1457 1454 1443 1443 1439 1438 1438 1434 1422 1415 1410 1406 1405 1402 1399 1395 1393